Regional Weather Roundup
Issued by NWS

Home | Current Version | Previous Version | Text Only | Print | Product List | Glossary On
Versions: 1 2 3 4 5 6 7 8 9 10 11 12 13 14 15 16 17 18 19 20 21 22 23 24 25 26 27 28 29 30 31 32 33 34 35 36 37 38 39 40 41 42 43 44 45 46 47 48 49 50
000
ASUS45 KREV 181610
RWRNV
NEVADA REGIONAL WEATHER ROUNDUP
NATIONAL WEATHER SERVICE RENO NV
800 AM PST MON DEC 18 2017

NOTE: "FAIR" INDICATES FEW OR NO CLOUDS BELOW 12,000 FEET WITH NO
SIGNIFICANT WEATHER AND/OR OBSTRUCTIONS TO VISIBILITY.

NVZ001-003-004-181700-
WESTERN NEVADA

CITY           SKY/WX    TMP DP  RH WIND       PRES   REMARKS
RENO           MOCLDY    23  17  78 CALM      30.31R
CARSON CITY    FAIR      21  16  79 CALM      30.31S
MINDEN         FLURRIES  14  10  85 S6        30.32R
SLIDE MTN        N/A     37  18  44 NW6         N/A
PYRAMID LAKE     N/A     32 N/A N/A W3          N/A
FALLON         MOCLDY    17  10  74 SW6       30.32S
LOVELOCK       CLOUDY    11   5  77 E5        30.32R
HAWTHORNE      CLEAR     16  10  79 E5        30.31R
$$

NVZ002-CAZ072-073-181700-
NORTHERN AND CENTRAL SIERRA

CITY           SKY/WX    TMP DP  RH WIND       PRES   REMARKS
S. LAKE TAHOE  CLEAR     20  16  84 CALM      30.28R
TRUCKEE        CLEAR     16  12  86 CALM      30.30R
SQUAW VLY 8000   N/A     32  21  64 NW2         N/A
SUSANVILLE     CLEAR    N/A N/A N/A W3        30.32R
BLUE CANYON    CLEAR     44  27  51 NE3       30.24R
MAMMOTH LAKES  FAIR      27  19  72 N5        30.29R
$$

NVZ030-031-036-181700-
NORTHERN NEVADA

CITY           SKY/WX    TMP DP  RH WIND       PRES   REMARKS
ELKO           PTCLDY    15  12  88 CALM      30.28R
WINNEMUCCA     MOCLDY    13   7  77 CALM      30.30S
WENDOVER       PTCLDY    21  16  81 CALM      30.30S
$$

NVZ035-037-181700-
CENTRAL NEVADA

CITY           SKY/WX    TMP DP  RH WIND       PRES   REMARKS
ELY            CLEAR     15   8  73 S10       30.25R
EUREKA           N/A     18  10  71 SW5       30.27R
$$

NVZ013-014-181700-
SOUTH CENTRAL NEVADA

CITY           SKY/WX    TMP DP  RH WIND       PRES   REMARKS
TONOPAH        PTCLDY    21   8  57 NE6       30.28R
$$

NVZ017-020-022-181700-
SOUTHERN NEVADA

CITY           SKY/WX    TMP DP  RH WIND       PRES   REMARKS
LAS VEGAS      MOSUNNY   42  16  34 S3        30.24R
N. LAS VEGAS   SUNNY     44  13  28 NW8       30.24R
NELLIS AFB     SUNNY     38  15  39 CALM      30.25R
HENDERSON      MOSUNNY   43  15  32 E6        30.25R
MERCURY        SUNNY     41  13  31 NE6       30.23R
$$



USA.gov is the U.S. government's official web portal to all federal, state and local government web resources and services.